STARLINK-31160, 58749

Orbit data source: Space-Track

STARLINK-31160, 58749 is a payload satellite owned by SpaceX/Seattle (US) in LEO that was launched on Sun, 07 Jan 2024 UTC via an FALCON 9 launch vehicle from the Air Force Eastern Test Range (AFETR). Payload-class satellites include a variety of spacecraft equipped with specific instruments for various scientific and technological missions. These include communications satellites like Starlink; space stations such as the ISS; scientific satellites like the Hubble; Earth observation satellites from companies like Planet Labs, Umbra, and HawkEye 360; GPS; miniature CubeSats for education and research; and military/defense satellites.

Loading next visibility...
Identifier
58749, 2024-005X
Orbit
LEO
Country
Flag of USUS
Related business
Manufacturer
SpaceX/Seattle
Mission
Operational Commercial Communications
Bus & Motor
STARLINK V2M, Unknown motor
Mass
730 kg wet, ~700 kg dry
Launch date (UTC)
2024-01-07 (2 years ago)
Launch vehicle
FALCON 9
Launch site
Air Force Eastern Test Range (AFETR)
Object type
Payload
Rocket body
Debris
Shape & HBR
Box + 2 Pan, 17.7 m
Radar Cross Section
33.884 m², Large (>1 m²)

Expand to show TLE details & history
Last TLE update: 3 days ago

TLE from 3 days ago
0 STARLINK-31160
1 58749U 24005X   26170.58507407 -.00000191  00000-0  26017-5 0  9999
2 58749  43.0057   4.5491 0001794 265.2200  94.8447 15.27578615136020
Epoch: 2026-06-19T14:02Z
TLE epoch observation values (Epoch: 2026-06-19T14:02:30.399Z)
Latitude
-0.00002°
Longitude
-113.88952°
Altitude
482.933 km
Speed
7.626 km/s
True Right ascension
00h 18m 11s
True Declination
0° 00' 00"
Sunlit
Object was in daylight at epoch
Visualization orbit readout
Latitude
Unknown
Longitude
Unknown
Altitude
Unknown
Speed
Unknown
Apparent Right ascension
Unknown
Apparent Declination
Unknown
Sunlit
N/A
Visualization observer readout
Local Sidereal Time
21:25:06
Azimuth
Unknown
Elevation
Unknown
Doppler factor
Unknown
Orbital elements
Apogee altitude
486.229 km
Perigee altitude
483.766 km
Semi-major axis
6,863.134 km
Eccentricity
0.00018
Inclination
43.0057°
RAAN
4.5491°
Arg. of periapsis
265.22°
True anomaly
94.86518°
Mean anomaly
94.8447°
Eccentric anomaly
94.85494°
Mean motion
3.81733 °/min
Orbital period
94.31 mins
BSTAR
0.0000026017
Loading maneuver chart data...
Computing Atmospheric mass density...
Loading historical data...
Loading historical data...
Loading historical data...
Loading historical data...
Loading historical data...
Loading historical data...
Loading historical data...

Documentation

Showing up to 5 results
|